DECAYED

STARLINK-1682, 46577 (Decayed)

Orbit data source: Space-Track

STARLINK-1682, 46577 was a payload satellite owned by SpaceX/Seattle (US) in LEO that was launched on Tue, 06 Oct 2020 UTC via an FALCON 9 launch vehicle from the Air Force Eastern Test Range (AFETR). Payload-class satellites include a variety of spacecraft equipped with specific instruments for various scientific and technological missions. These include communications satellites like Starlink; space stations such as the ISS; scientific satellites like the Hubble; Earth observation satellites from companies like Planet Labs, Umbra, and HawkEye 360; GPS; miniature CubeSats for education and research; and military/defense satellites.

Not visible in the next 10 days
Identifier
46577, 2020-070AX
Orbit
Decayed
Country
Flag of USUS
Related business
Manufacturer
SpaceX/Seattle
Mission
Decayed Commercial Communications
Bus & Motor
STARLINK, Unknown motor
Mass
260 kg wet, ~248 kg dry
Launch date (UTC)
2020-10-06 (6 years ago)
Launch vehicle
FALCON 9
Launch site
Air Force Eastern Test Range (AFETR)
Object type
Payload
Rocket body
Debris
Shape & HBR
Box + 1 Pan, 10.1 m
Radar Cross Section
13.562 m², Large (>1 m²)

Expand to show TLE details & history
Last TLE update: 1 year ago

TLE from 1 year ago
0 STARLINK-1682
1 46577U 20070AX  25061.38628649  .07090138  12076-4  12651-2 0  9993
2 46577  53.0336 349.5333 0004924 204.4644 260.8374 16.31833248244205
Epoch: 2025-03-02T09:16Z
TLE epoch observation values (Epoch: 2025-03-02T09:16:15.152Z)
Latitude
50.58775°
Longitude
164.45977°
Altitude
194.03 km
Speed
7.796 km/s
True Right ascension
06h 55m 46s
True Declination
50° 24' 16"
Sunlit
Object was in full shadow at epoch
Visualization orbit readout
Latitude
Unknown
Longitude
Unknown
Altitude
Unknown
Speed
Unknown
Apparent Right ascension
Unknown
Apparent Declination
Unknown
Sunlit
N/A
Visualization observer readout
Local Sidereal Time
02:57:50
Azimuth
Unknown
Elevation
Unknown
Doppler factor
Unknown
Orbital elements
Apogee altitude
191.139 km
Perigee altitude
184.673 km
Semi-major axis
6,566.043 km
Eccentricity
0.00049
Inclination
53.0336°
RAAN
349.5333°
Arg. of periapsis
204.4644°
True anomaly
260.7817°
Mean anomaly
260.8374°
Eccentric anomaly
260.80955°
Mean motion
4.07932 °/min
Orbital period
88.25 mins
BSTAR
0.0012651
Loading maneuver chart data...
Computing Atmospheric mass density...

Documentation

Showing up to 5 results
|